Vorticity
6 7 21 2 8 13 12 3 20 0 11 -23 4 19 18 32 -8 16 12 -10 9 18 7 9 4 7 9 7 8 8 10 9 3 2 0 11 10 16
7 3 6 6 9 8 4 15 6 20 -0 23 -6 37 -1 7 22 12 12 10 7 9 10 11 6 7 10 7 7 6 3 0 8 11 11 14 10 5
2 20 8 7 11 7 5 31 -5 -3 -6 -4 7 -21 -4 11 6 6 8 4 12 2 12 8 9 7 8 7 6 9 6 13 11 15 11 7 6 10
14 10 19 10 16 -4 8 12 7 38 8 24 13 16 2 18 13 6 0 3 5 8 12 10 2 11 9 4 12 10 12 13 13 9 8 11 10 9
18 34 -5 15 6 -6 -11 9 7 3 12 12 3 7 -0 8 9 7 19 5 7 14 17 2 12 7 10 11 13 11 13 9 7 9 9 8 7 8
23 12 17 29 18 13 18 -1 30 9 33 -10 12 3 28 2 -1 6 13 -4 12 10 9 9 4 10 13 10 15 8 7 8 9 9 8 7 11 15
13 25 37 1 -10 14 -1 35 -16 23 -17 18 26 -2 -0 19 12 16 -4 10 11 9 10 4 13 8 18 8 8 7 9 9 9 8 9 11 12 14
11 8 13 3 2 28 -1 10 3 -11 27 12 15 10 20 14 10 7 10 14 14 3 8 7 19 10 12 4 9 10 9 8 9 10 10 11 14 14
25 -0 30 5 17 1 22 6 11 1 9 -2 15 9 7 10 9 14 11 3 7 6 18 17 13 6 6 8 9 8 8 9 9 9 10 13 13 11
4 -7 10 6 28 6 3 32 32 28 21 13 6 5 18 9 15 8 6 3 17 16 14 12 4 5 10 9 8 8 9 9 9 11 13 10 10 11
-3 18 14 10 9 3 14 5 11 12 6 9 10 9 8 14 8 6 15 19 22 14 7 0 8 11 9 8 9 10 9 9 12 11 9 10 9 14
8 12 9 1 -5 5 16 27 6 7 6 7 7 11 8 9 17 19 25 20 10 -2 3 10 10 9 9 12 9 10 10 10 9 9 10 9 11 12
8 7 6 4 9 2 10 10 9 2 14 10 9 9 15 17 22 12 7 -2 5 10 10 10 10 12 10 10 9 11 11 8 10 10 10 8 9 11
12 16 11 13 23 21 13 12 11 14 9 7 13 15 18 19 8 1 5 9 9 10 9 10 13 9 8 9 14 13 13 9 11 10 8 9 11 15
8 10 9 13 12 11 9 11 10 7 13 17 17 19 9 1 4 9 9 9 9 9 12 13 8 6 8 10 12 12 16 13 10 7 9 14 15 15
13 19 8 13 11 14 11 7 11 15 16 18 10 2 4 9 9 8 8 9 11 14 12 7 7 9 9 10 10 11 10 10 8 7 14 17 11 9
22 13 17 14 9 7 13 14 15 18 15 2 5 9 8 8 8 8 9 12 14 10 6 8 9 9 9 9 7 8 9 9 8 13 14 14 12 14
9 10 12 12 12 15 17 20 12 2 6 8 8 8 8 8 9 10 12 13 9 7 8 9 10 10 10 7 7 9 11 9 13 13 11 14 15 13
9 8 12 15 16 17 8 3 7 9 8 8 8 8 8 9 10 11 11 9 8 8 9 10 10 10 10 11 11 8 11 8 14 13 12 10 14 17
14 17 16 12 7 6 8 8 8 8 8 8 8 8 9 10 10 10 10 10 9 9 9 10 10 10 10 10 12 11 7 10 15 14 10 13 13 15
12 10 7 5 7 5 7 8 8 8 8 8 8 8 8 8 8 9 10 9 8 9 10 10 10 10 10 9 10 9 6 10 12 11 10 12 12 14
12 8 7 7 6 7 8 8 8 8 8 7 7 7 8 7 8 9 9 9 9 10 10 11 10 11 9 9 9 10 8 11 12 9 9 9 10 11
5 6 6 6 6 7 7 7 7 7 7 6 6 6 6 7 7 8 8 10 11 10 10 11 10 10 9 9 9 10 9 13 12 10 7 9 9 8
Height
3042 3046 3048 3053 3053 3057 3061 3062 3065 3066 3070 3071 3073 3077 3079 3080 3082 3083 3082 3082 3082 3081 3080 3079 3077 3075 3075 3072 3069 3067 3066 3063 3061 3057 3054 3051 3049 3044
3034 3037 3040 3044 3047 3050 3052 3055 3058 3059 3061 3064 3067 3068 3070 3073 3074 3075 3075 3076 3075 3074 3073 3072 3071 3069 3067 3064 3062 3060 3058 3055 3052 3048 3045 3042 3039 3035
3026 3029 3032 3036 3039 3042 3045 3048 3049 3051 3055 3057 3060 3062 3063 3065 3066 3068 3067 3068 3068 3067 3066 3064 3063 3061 3060 3058 3055 3052 3049 3046 3043 3040 3037 3034 3030 3025
3020 3023 3024 3028 3031 3035 3038 3040 3043 3046 3048 3050 3054 3056 3057 3057 3059 3060 3060 3061 3061 3059 3058 3057 3056 3054 3052 3050 3047 3044 3040 3038 3035 3032 3028 3025 3020 3015
3011 3014 3018 3021 3024 3027 3029 3034 3035 3039 3041 3044 3047 3047 3049 3051 3052 3053 3053 3053 3052 3051 3050 3049 3048 3046 3044 3041 3038 3036 3032 3029 3027 3023 3019 3015 3011 3007
3004 3007 3011 3013 3017 3020 3023 3026 3029 3032 3034 3037 3039 3041 3042 3044 3045 3046 3046 3045 3044 3043 3043 3041 3041 3039 3036 3032 3030 3028 3025 3022 3018 3015 3011 3007 3002 2999
2998 3001 3003 3006 3010 3014 3016 3019 3022 3024 3026 3030 3032 3034 3036 3037 3037 3038 3038 3037 3036 3036 3035 3034 3033 3030 3029 3026 3023 3021 3018 3015 3011 3008 3003 2998 2993 2988
2991 2995 2998 3002 3004 3008 3011 3013 3016 3018 3020 3023 3025 3027 3028 3030 3031 3031 3030 3030 3030 3030 3028 3028 3027 3024 3023 3019 3017 3015 3011 3007 3004 2999 2994 2988 2983 2980
2985 2990 2992 2996 2999 3001 3004 3007 3010 3012 3014 3017 3019 3021 3022 3023 3023 3024 3024 3024 3024 3024 3022 3021 3020 3017 3016 3013 3009 3006 3003 2999 2995 2991 2985 2979 2975 2972
2981 2985 2987 2991 2992 2996 2999 3001 3003 3006 3008 3011 3014 3015 3016 3017 3018 3018 3018 3018 3017 3017 3016 3016 3014 3011 3010 3005 3002 3000 2995 2992 2988 2982 2976 2971 2967 2964
2976 2980 2983 2986 2989 2991 2994 2997 2999 3002 3005 3007 3009 3010 3010 3011 3011 3013 3012 3012 3012 3012 3011 3010 3008 3006 3002 2999 2997 2994 2989 2984 2979 2974 2969 2964 2960 2957
2970 2975 2977 2982 2984 2987 2990 2992 2996 2998 3001 3002 3003 3004 3005 3006 3006 3006 3007 3007 3007 3007 3006 3004 3002 3001 2998 2995 2991 2988 2982 2975 2971 2967 2963 2957 2952 2946
2966 2970 2973 2977 2979 2982 2985 2988 2992 2993 2995 2997 2999 3000 3000 3001 3001 3003 3004 3003 3002 3001 3001 3000 2998 2996 2994 2991 2985 2980 2975 2970 2967 2963 2958 2950 2945 2938
2962 2965 2969 2972 2975 2978 2982 2984 2987 2989 2992 2994 2994 2995 2996 2998 2999 3000 2999 2999 2998 2998 2996 2995 2993 2991 2989 2985 2982 2978 2972 2966 2961 2958 2953 2945 2940 2933
2958 2962 2965 2969 2972 2975 2978 2981 2984 2986 2988 2990 2991 2993 2995 2996 2997 2996 2996 2995 2994 2993 2992 2990 2988 2984 2981 2979 2977 2973 2970 2965 2957 2952 2946 2938 2932 2927
2954 2957 2962 2966 2970 2973 2976 2979 2981 2983 2985 2987 2990 2992 2993 2993 2993 2993 2992 2991 2990 2989 2987 2984 2981 2978 2974 2971 2969 2966 2959 2954 2952 2944 2940 2933 2925 2919
2954 2958 2961 2965 2968 2971 2974 2976 2979 2982 2984 2987 2989 2990 2990 2991 2990 2990 2989 2988 2986 2984 2982 2980 2977 2973 2969 2966 2962 2958 2954 2950 2945 2939 2934 2929 2921 2915
2953 2957 2960 2963 2966 2970 2973 2976 2979 2981 2983 2985 2987 2988 2988 2988 2988 2987 2986 2984 2982 2980 2978 2976 2973 2969 2965 2960 2956 2955 2951 2946 2941 2934 2927 2922 2919 2912
2953 2956 2960 2963 2966 2969 2973 2976 2978 2980 2983 2984 2986 2987 2987 2986 2985 2984 2982 2980 2979 2978 2976 2973 2971 2967 2963 2960 2954 2948 2948 2942 2937 2932 2925 2919 2913 2907
2952 2956 2960 2963 2967 2970 2973 2976 2978 2980 2982 2984 2984 2985 2984 2984 2983 2981 2979 2979 2977 2975 2973 2970 2966 2963 2959 2956 2952 2947 2942 2939 2935 2930 2925 2919 2912 2905
2953 2957 2961 2964 2968 2971 2974 2976 2978 2980 2981 2982 2983 2983 2982 2981 2980 2978 2977 2976 2973 2971 2968 2966 2963 2959 2956 2952 2948 2944 2937 2930 2927 2924 2919 2915 2910 2905
2955 2958 2962 2965 2969 2972 2974 2976 2978 2979 2980 2981 2981 2981 2980 2979 2978 2976 2974 2972 2970 2967 2964 2962 2958 2955 2952 2948 2944 2940 2936 2930 2922 2917 2914 2909 2903 2898
2956 2960 2963 2967 2969 2972 2974 2976 2977 2978 2979 2980 2979 2979 2978 2977 2975 2973 2971 2969 2966 2963 2960 2957 2954 2951 2948 2944 2941 2937 2933 2929 2924 2918 2911 2906 2902 2896